FW0696 Weather Reports


Display with metric or nautical units.
time (UTC)temp
F
wind
direction
speed
MPH
gust
MPH
rain 1hr
in
rain 24hr
in
rain mn
in
humidity
%
barometer
mb
20260504044537 53 307 0.0 0.0 0.00 0.01 0.01 76 1032.0
20260504043041 54 307 0.0 0.0 0.00 0.01 0.01 72 1032.1
20260504041536 55 311 0.0 0.0 0.00 0.01 0.01 71 1032.0
20260504040038 55 32 0.0 2.0 0.00 0.01 0.01 70 1032.0
20260504034534 55 343 0.0 3.0 0.00 0.01 0.01 70 1031.7
20260504033033 55 81 0.0 3.0 0.00 0.01 0.01 69 1031.8
20260504031535 54 28 0.0 1.0 0.00 0.01 0.01 71 1031.6
20260504030031 54 1 0.0 2.0 0.00 0.01 0.01 70 1031.6
20260504024529 56 359 0.0 2.0 0.00 0.01 0.01 68 1031.5
20260504023027 55 280 0.0 2.0 0.00 0.01 0.01 69 1031.6
20260504021524 55 328 0.0 3.0 0.00 0.01 0.01 70 1031.7
20260504020022 54 338 0.0 1.0 0.00 0.01 0.01 72 1031.8
20260504014524 52 4 0.0 2.0 0.00 0.01 0.01 73 1031.9
20260504013015 52 25 0.0 0.0 0.00 0.01 0.01 76 1031.9
20260504011513 52 328 0.0 2.0 0.00 0.01 0.01 75 1032.3
20260504010011 51 293 0.0 3.0 0.00 0.01 0.01 76 1032.4
20260504004517 51 323 0.0 1.0 0.00 0.01 0.01 78 1032.7
20260504003005 51 333 0.0 1.0 0.00 0.01 0.01 78 1033.2
20260504001502 50 328 0.0 0.0 0.00 0.01 0.01 78 1033.6
20260504000002 51 307 1.0 3.0 0.00 0.01 0.01 77 1033.7
20260503234628 50 356 0.0 1.0 0.00 0.01 0.01 80 1034.0
20260503233056 48 69 0.0 0.0 0.00 0.01 0.01 83 1034.1
20260503231553 48 340 0.0 0.0 0.00 0.01 0.01 86 1034.3
20260503230054 46 342 0.0 1.0 0.00 0.01 0.01 88 1034.4
20260503224549 46 9 0.0 1.0 0.00 0.01 0.01 89 1034.5
20260503223046 46 139 0.0 0.0 0.00 0.01 0.01 92 1034.5
20260503221553 44 139 0.0 0.0 0.00 0.01 0.01 95 1034.5
20260503220039 43 139 0.0 0.0 0.00 0.01 0.01 97 1034.5
20260503214535 41 139 0.0 0.0 0.00 0.01 0.01 98 1034.6
20260503213034 39 139 0.0 0.0 0.00 0.01 0.01 98 1034.8
20260503211528 37 139 0.0 1.0 0.00 0.01 0.01 98 1034.7
20260503210026 36 134 0.0 1.0 0.00 0.01 0.01 98 1034.8
20260503204525 35 150 0.0 1.0 0.01 0.01 0.01 98 1034.7
20260503203023 34 164 0.0 2.0 0.01 0.01 0.01 97 1034.7
20260503201522 33 146 0.0 2.0 0.01 0.01 0.01 97 1034.6
20260503200023 33 147 0.0 3.0 0.01 0.01 0.01 97 1034.5
20260503194523 33 148 0.0 2.0 0.00 0.00 0.00 97 1034.5
20260503193019 33 139 0.0 2.0 0.00 0.00 0.00 97 1034.4
20260503191520 33 204 1.0 3.0 0.00 0.00 0.00 96 1034.3
20260503190117 33 163 0.0 3.0 0.00 0.00 0.00 96 1034.3
20260503184517 33 140 0.0 2.0 0.00 0.00 0.00 97 1034.3
20260503183017 34 154 0.0 5.0 0.00 0.00 0.00 97 1034.4
20260503181511 33 194 1.0 4.0 0.00 0.00 0.00 96 1034.3
20260503180010 33 162 1.0 3.0 0.00 0.00 0.00 96 1034.1
20260503174506 33 206 0.0 2.0 0.00 0.00 0.00 96 1034.0
20260503173005 33 158 0.0 3.0 0.00 0.00 0.00 96 1033.9
20260503171502 34 132 0.0 1.0 0.00 0.00 0.00 96 1033.7
20260503081521 40 150 0.0 2.0 0.00 0.00 0.00 89 1033.7
20260503080121 41 177 0.0 4.0 0.00 0.00 0.00 89 1033.6